Location: Orinda
(37.8771°N, 122.1797°W)
Time: 06:32:47
(UTC+00:00)

Cosmos 2278 Rocket - Pass Details

Date: 21 October 2019
Orbit: 840 x 847 km, 71.0° (Epoch: 12 November)

Event Time Altitude Azimuth Distance (km) Brightness Sun altitude
Exits shadow 12:22:05 59° 294° (WNW) 971 2.2 -24.5°
Maximum altitude 12:22:52 67° 251° (WSW) 915 2.1 -24.4°
Drops below altitude 10° 12:28:27 10° 170° (S) 2,454 4.7 -23.3°
Sets 12:30:54 0° 168° (SSE) 3,384 5.4 -22.8°
